Location: Bothwell
(42.3833°S, 147.0000°E)
Time: 20:03:18
(UTC+11:00)

CUBESAT XI-V - Pass Details

Date: 01 October 2022
Orbit: 666 x 689 km, 98.1° (Epoch: 25 November)

Event Time Altitude Azimuth Distance (km) Brightness Sun altitude
Rises 03:31:58 0° 176° (S) 3,090 ? -24.4°
Reaches altitude 10° 03:34:21 10° 184° (S) 2,169 ? -24.1°
Enters shadow 03:37:47 33° 225° (SW) 1,172 ? -23.5°
